Location: Praha
(50.0830°N, 14.4670°E)
Time: 12:11:29
(UTC+01:00)

ISS - Pass Details

Date: 21 January 2023
Orbit: 412 x 423 km, 51.6° (Epoch: 06 February)

Event Time Altitude Azimuth Distance (km) Brightness Sun altitude
Rises 17:33:31 0° 225° (SW) 2,370 1.4 -9.0°
Reaches altitude 10° 17:35:42 10° 217° (SW) 1,510 0.0 -9.3°
Maximum altitude 17:38:51 36° 149° (SSE) 697 -2.8 -9.8°
Enters shadow 17:41:21 14° 86° (E) 1,280 -1.9 -10.2°
